Regional Weather Roundup
Issued by NWS

Home | Current Version | Previous Version | Text Only | Print | Product List | Glossary On
Versions: 1 2 3 4 5 6 7 8 9 10 11 12 13 14 15 16 17 18 19 20 21 22 23 24 25 26 27 28 29 30 31 32 33 34 35 36 37 38 39 40 41 42 43 44 45 46 47 48 49 50
000
ASUS44 KOUN 260610
RWROK

WEATHER ROUNDUP FOR OKLAHOMA
NATIONAL WEATHER SERVICE NORMAN OK
100 AM CDT MON JUN 26 2017

NOTE: "FAIR" INDICATES FEW OR NO CLOUDS BELOW 12,000 FEET WITH NO
      SIGNIFICANT WEATHER AND/OR OBSTRUCTIONS TO VISIBILITY.

OKZ001>007-009>012-014-015-017-260700-
NORTHWEST OKLAHOMA AND THE PANHANDLE

CITY           SKY/WX    TMP DP  RH WIND       PRES   REMARKS
GAGE           CLOUDY    66  54  65 E5        30.22S
6HR MIN TEMP:  65; 6HR MAX TEMP:  73; 6HR PCP: TRACE;

GUYMON           N/A     65  62  90 NE6       30.25R
ENID/WOODRING  MOCLDY    66  61  82 E6        30.20R
$$

OKZ016-021>023-033>039-044-045-260700-
SOUTHWEST OKLAHOMA

CITY           SKY/WX    TMP DP  RH WIND       PRES   REMARKS
LAWTON/REGL    CLOUDY    71  63  75 E6        30.18S
6HR MIN TEMP:  69; 6HR MAX TEMP:  85;

LAWTON/FT SILL CLOUDY    71  63  73 SE6       30.17S
FREDERICK      CLOUDY    74  65  73 SE8       30.15S
CLINTON        CLOUDY    73  53  49 SE9       30.21S
HOBART         CLOUDY    70  58  65 E6        30.20S
ALTUS AFB      CLOUDY    72  61  66 SE8       30.18S
$$

OKZ018>020-024>031-260700-
CENTRAL OKLAHOMA

CITY           SKY/WX    TMP DP  RH WIND       PRES   REMARKS
OKLAHOMA CITY  CLOUDY    71  54  54 SE7       30.20R
6HR MIN TEMP:  69; 6HR MAX TEMP:  84;

OKC/WILEY POST PTCLDY    75  55  49 SE8       30.19S
OKC/TINKER AFB PTCLDY    70  56  60 SE5       30.20R
STILLWATER     PTCLDY    68  60  75 E9        30.20S
GUTHRIE        PTCLDY    71  53  52 SE7       30.19S
$$

OKZ008-013-054>072-260700-
NORTHEAST OKLAHOMA

CITY           SKY/WX    TMP DP  RH WIND       PRES   REMARKS
TULSA          CLOUDY    72  62  71 NE5       30.19S
6HR MIN TEMP:  72; 6HR MAX TEMP:  85;

TULSA/JONES    MOCLDY    75  58  55 NE10      30.19S
PONCA CITY     CLEAR     68  54  60 E10       30.21R
BARTLESVILLE   CLOUDY    64  56  75 CALM      30.23S
MUSKOGEE       CLOUDY    71  66  84 CALM      30.20S
$$

OKZ032-040>043-046>053-073>077-260700-
SOUTH CENTRAL/SOUTHEAST OKLAHOMA

CITY           SKY/WX    TMP DP  RH WIND       PRES   REMARKS
ARDMORE/DWNTWN PTCLDY    70  61  73 CALM      30.19R
MCALESTER      CLOUDY    73  63  70 SE3       30.20S
$$




USA.gov is the U.S. government's official web portal to all federal, state and local government web resources and services.